Regional Weather Roundup
Issued by NWS

Home | Current Version | Previous Version | Graphics & Text | Print | Product List | Glossary On
Versions: 1 2 3 4 5 6 7 8 9 10 11 12 13 14 15 16 17 18 19 20 21 22 23 24 25 26 27
000
ASUS45 KBOU 281107
RWRCO

WEATHER ROUNDUP FOR COLORADO
NATIONAL WEATHER SERVICE DENVER/BOULDER CO
500 AM MDT THU APR 28 2016

NOTE: "FAIR" INDICATES FEW OR NO CLOUDS BELOW 12000 FEET WITH NO
SIGNIFICANT WEATHER AND/OR OBSTRUCTIONS TO VISIBILITY.

COZ001>005-013-030-031-281200-
...NORTHWEST COLORADO...

CITY           SKY/WX    TMP DP  RH WIND       PRES   REMARKS
CRAIG          FAIR      35  30  82 NE5       29.78S WCI  31
HAYDEN         FAIR      34  27  75 SE8       29.78S WCI  27
MEEKER         CLOUDY    38  32  79 NE6       29.75F
MOUNT WERNER   NOT AVBL
STEAMBOAT SPGS FAIR      31  29  92 CALM      29.80S
WALDEN         FAIR      25  23  93 N5        29.87S WCI  19
$$

COZ006>008-011-281200-
...WEST CENTRAL VALLEYS...

CITY           SKY/WX    TMP DP  RH WIND       PRES   REMARKS
GRAND JUNCTION LGT RAIN  46  40  79 SE9       29.70R
MONTROSE       CLOUDY    44  38  79 CALM      29.74S
EAGLE          MOCLDY    34  30  86 SE5       29.82F WCI  30
RIFLE          CLOUDY    43  34  70 NE5       29.73F
DELTA          NOT AVBL
NUCLA          NOT AVBL
$$

COZ017>023-064>068-281200-
...SOUTHWEST COLORADO...

CITY           SKY/WX    TMP DP  RH WIND       PRES   REMARKS
DURANGO        CLOUDY    44  30  57 VRB3      29.79R
CORTEZ         CLOUDY    43  39  86 SE6       29.75R
PAGOSA SPRINGS CLOUDY    44  26  48 S14G20    29.85R
TELLURIDE      FLURRIES  35  32  90 CALM      29.80S
WOLF CREEK PAS NOT AVBL
$$

COZ009-010-012-014-032>034-037-058>063-281200-
...CENTRAL COLORADO...

CITY           SKY/WX    TMP DP  RH WIND       PRES   REMARKS
ASPEN          FAIR      31  26  82 SW5       29.77F WCI  26
BUENA VISTA    LGT SNOW  33  32  95 S9        29.86S WCI  26
COPPER MTN     NOT AVBL
BERTHOUD PASS  MOCLDY    18   9  68 SE9       29.91S WCI   6
COTTONWOOD PAS LGT SNOW  32  30  93 SE21G32   29.86F WCI  20
GUNNISON       FAIR      36  30  80 N8        29.81F
KREMMLING      FAIR      28  27  93 CALM      29.85S
LEADVILLE      LGT SNOW  28  28 100 S9        29.84F VSB 3/4 WCI  19
MONARCH PASS   FOG       25  23  93 SE9G21    30.01F VSB<1/4 WCI  15
SALIDA         CLOUDY    38  34  86 SE18G29   29.92S
SUNLIGHT       CLOUDY    30  28  93 CALM      29.86F
WILKERSON PASS FOG       23  21  93 S10G17    29.93F VSB 3/4 WCI  12
$$

COZ069>075-281200-
...SAN LUIS VALLEY/SANGRE DE CRISTO MOUNTAINS...

CITY           SKY/WX    TMP DP  RH WIND       PRES   REMARKS
ALAMOSA        CLOUDY    42  32  67 S8        29.82S
LA VETA PASS   LGT SNOW  27  23  86 MISG      29.92F VSB 3/4
SAGUACHE       MOCLDY    36  32  87 E3        29.83F
$$

COZ035-036-038>040-281200-
...NORTHERN COLORADO FRONT RANGE...

CITY           SKY/WX    TMP DP  RH WIND       PRES   REMARKS
DENVER INTL AP CLOUDY    35  26  69 E6        29.93R WCI  30
DMNS CITY PARK   N/A     37  27  67 E8G15     29.93S
AURORA         CLOUDY    35  28  75 E6        29.93F WCI  30
FRONT RANGE AP NOT AVBL
ERIE MUNI ARPT CLOUDY    37  28  70 E7        29.94S
BOULDER MUN AP CLOUDY    37  28  70 E6        29.93S
CENTENNIAL     FLURRIES  35  28  75 E6        29.92S WCI  30
BROOMFIELD     CLOUDY    36  28  75 E7        29.93S
FORT COLLINS   CLOUDY    36  27  69 SE7       29.95R
LONGMONT       CLOUDY    39  30  70 E7        29.96S
$$

COZ041-046-047-076>085-087-088-281200-
...PIKES PEAK/PALMER DIVIDE AND SOUTHERN FOOTHILLS...

CITY           SKY/WX    TMP DP  RH WIND       PRES   REMARKS
COLO. SPRINGS  CLOUDY    36  27  69 SE5       29.93S
A. F. ACADEMY  CLOUDY    36  30  80 NW1       29.91S
SCHRIEVER AFB  NOT AVBL
ELLICOTT       NOT AVBL
FALCON         CLOUDY    32  26  77 NE7       29.93S WCI  26
FORT CARSON    CLOUDY    37  30  75 SE5       29.92S
LIMON          CLOUDY    33  27  78 N7        29.94R WCI  27
MONUMENT HILL  CLOUDY    30  27  86 E3        29.93S
TRINIDAD       CLOUDY    42  30  62 NE7       29.90R
$$

COZ042>045-048>051-090-091-281200-
...NORTHEAST COLORADO...

CITY           SKY/WX    TMP DP  RH WIND       PRES   REMARKS
GREELEY ARPT   CLOUDY    36  28  75 S6        29.95R
AKRON          CLOUDY    32  28  85 W3        29.94R
BURLINGTON     FAIR      34  29  82 NW6       29.94R WCI  29
WRAY           NOT AVBL
STERLING       FAIR      32  30  93 N8        29.94R WCI  25
HOLYOKE        NOT AVBL
FORT MORGAN    CLOUDY    33  29  86 CALM      29.95S
$$

COZ086-089-092>099-281200-
...SOUTHEAST COLORADO...

CITY           SKY/WX    TMP DP  RH WIND       PRES   REMARKS
PUEBLO         CLOUDY    44  27  51 E10       29.93R
LA JUNTA       MOCLDY    42  29  59 E7        29.95R
LAMAR          FAIR      38  31  76 NE5       29.93R
SPRINGFIELD      N/A     37  31  78 NE12      29.92S
$$




USA.gov is the U.S. government's official web portal to all federal, state and local government web resources and services.